DH1NAI-6 Weather Reports


time (UTC)temp
C
wind
direction
speed
KPH
gust
KPH
rain 1hr
cm
rain 24hr
cm
rain mn
cm
humidity
%
barometer
mb
20260506044849 10 184 3.2 4.8 0.00 0.08 0.00 99 1004.0
20260506043841 10 31 1.6 1.6 0.00 0.08 0.00 99 1003.8
20260506042833 10 179 1.6 1.6 0.00 0.08 0.00 99 1003.6
20260506041825 10 19 4.8 4.8 0.00 0.08 0.00 99 1003.8
20260506040818 10 233 1.6 3.2 0.00 0.08 0.00 99 1003.6
20260506035809 10 312 0.0 1.6 0.10 0.05 0.00 99 1003.5
20260506034801 10 280 6.4 6.4 0.10 0.05 0.00 99 1003.5
20260506033753 10 129 1.6 3.2 0.10 0.05 0.00 99 1003.6
20260506032745 10 205 4.8 9.7 0.10 0.05 0.00 99 1003.5
20260506031737 10 193 1.6 1.6 0.00 0.03 0.00 99 1003.5
20260506030729 10 17 0.0 1.6 0.00 0.03 0.00 99 1003.5
20260506025721 10 192 1.6 3.2 0.10 0.03 0.00 99 1003.6
20260506024713 10 182 0.0 0.0 0.10 0.03 0.00 99 1003.7
20260506022657 10 178 1.6 3.2 0.10 0.03 0.00 99 1003.7
20260506021649 10 207 3.2 3.2 0.10 0.03 0.00 99 1003.6
20260506020625 10 144 1.6 1.6 0.10 0.03 0.00 99 1003.9
20260506015617 10 226 1.6 3.2 0.00 0.00 0.00 99 1003.8
20260506014613 10 156 0.0 1.6 0.00 0.00 0.00 99 1003.9
20260506013601 10 246 3.2 4.8 0.00 0.00 0.00 99 1004.0
20260506012553 10 144 0.0 0.0 0.00 0.00 0.00 99 1004.0
20260506011545 10 177 0.0 0.0 0.00 0.00 0.00 99 1004.0
20260506010537 10 104 0.0 0.0 0.00 0.00 0.00 99 1004.0
20260506005529 10 171 1.6 1.6 0.00 0.00 0.00 99 1003.9
20260506004521 10 111 1.6 3.2 0.00 0.00 0.00 99 1004.2
20260506003457 10 164 1.6 1.6 0.00 0.00 0.00 99 1004.1
20260506002449 10 120 0.0 1.6 0.00 0.00 0.00 99 1004.1
20260506001425 10 109 1.6 1.6 0.00 0.00 0.00 99 1004.2
20260506000417 10 18 3.2 3.2 0.00 0.00 0.00 99 1004.5
20260505235409 10 162 1.6 1.6 0.00 0.00 0.00 99 1004.5
20260505234401 10 166 1.6 1.6 0.00 0.00 0.00 99 1004.6
20260505233353 10 156 3.2 4.8 0.00 0.00 0.00 99 1004.5
20260505232345 10 145 0.0 1.6 0.00 0.00 0.00 99 1004.5
20260505231332 10 206 3.2 3.2 0.00 0.00 0.00 99 1004.4
20260505230313 10 173 0.0 0.0 0.00 0.00 0.00 99 1004.3
20260505225306 10 185 1.6 4.8 0.00 0.00 0.00 99 1004.3
20260505224257 10 181 0.0 1.6 0.00 0.00 0.00 99 1004.2
20260505223249 10 186 3.2 3.2 0.00 0.00 0.00 99 1004.2
20260505222225 10 253 3.2 3.2 0.00 0.00 0.00 99 1004.4
20260505221217 10 214 1.6 3.2 0.00 0.00 0.00 99 1004.3
20260505220209 10 213 4.8 6.4 0.00 0.00 0.00 99 1004.5
20260505215201 10 179 0.0 0.0 0.00 1.57 0.00 99 1004.6
20260505214153 10 184 0.0 0.0 0.00 1.57 0.00 99 1004.6
20260505213145 10 129 0.0 0.0 0.00 1.57 0.00 99 1004.6
20260505212132 10 160 1.6 1.6 0.00 1.57 0.00 99 1004.7
20260505211130 10 188 1.6 1.6 0.00 1.57 0.00 99 1004.6
20260505210121 10 171 3.2 3.2 0.00 1.57 0.00 99 1004.9
20260505205057 10 163 3.2 3.2 0.00 1.57 0.00 99 1004.7
20260505204049 10 164 1.6 1.6 0.00 1.57 0.00 99 1004.9
20260505203025 10 308 1.6 1.6 0.00 1.57 0.00 99 1004.8
20260505202017 10 156 0.0 1.6 0.00 1.57 0.00 99 1004.9
20260505201009 10 167 0.0 0.0 0.00 1.57 0.00 99 1004.8
20260505200001 10 186 0.0 1.6 0.10 1.57 0.00 99 1004.4
20260505194953 10 168 0.0 0.0 0.10 1.57 0.00 99 1004.3
20260505193946 10 162 0.0 0.0 0.10 1.57 0.00 99 1004.2
20260505192932 10 176 0.0 0.0 0.10 1.55 0.00 99 1004.0
20260505191929 10 163 0.0 0.0 0.10 1.52 0.00 99 1004.3
20260505190921 10 256 0.0 0.0 0.10 1.47 0.00 99 1004.6
20260505185857 10 98 3.2 3.2 0.10 1.45 0.00 99 1005.0
20260505184849 10 173 0.0 1.6 0.10 1.37 0.00 99 1005.0
20260505183825 11 201 6.4 6.4 0.10 1.27 0.00 99 1004.9
20260505182817 11 188 4.8 6.4 0.10 1.17 0.00 99 1005.3
20260505181809 11 24 3.2 4.8 0.10 0.99 0.00 99 1005.3
20260505180804 11 246 3.2 3.2 0.10 0.91 0.00 99 1005.3
20260505175753 11 260 1.6 3.2 0.10 0.81 0.00 98 1005.3
20260505174745 13 113 11.3 19.3 0.10 0.25 0.00 93 1005.1
20260505173732 14 125 3.2 3.2 0.00 0.15 0.00 88 1003.9
20260505172729 14 132 1.6 3.2 0.00 0.15 0.00 87 1003.9
20260505171721 15 106 1.6 1.6 0.00 0.15 0.00 88 1003.8
20260505170657 15 78 1.6 1.6 0.00 0.15 0.00 88 1003.9
20260505165649 15 140 4.8 6.4 0.00 0.15 0.00 86 1003.9
20260505164625 15 109 3.2 4.8 0.00 0.15 0.00 86 1004.0
20260505163617 15 140 1.6 1.6 0.00 0.15 0.00 87 1004.1
20260505162609 15 156 1.6 1.6 0.00 0.15 0.00 88 1004.1
20260505161601 15 149 0.0 0.0 0.00 0.15 0.00 93 1004.4
20260505160553 15 163 0.0 1.6 0.00 0.15 0.00 92 1004.6
20260505152521 15 125 3.2 4.8 0.10 0.15 0.00 92 1004.6
20260505151457 15 191 0.0 0.0 0.10 0.15 0.00 92 1004.8
20260505150449 15 163 0.0 0.0 0.00 0.13 0.00 91 1004.9
20260505140345 17 109 3.2 3.2 0.00 0.08 0.00 75 1005.1
20260505124242 19 102 4.8 4.8 0.00 0.08 0.00 72 1005.9
20260505123233 18 186 3.2 4.8 0.00 0.08 0.00 72 1006.0
20260505122226 19 189 4.8 11.3 0.00 0.08 0.00 73 1005.9
20260505121219 18 335 4.8 6.4 0.00 0.08 0.00 73 1006.0
20260505120153 17 288 3.2 6.4 0.00 0.08 0.00 76 1006.2
20260505115146 17 313 3.2 4.8 0.00 0.08 0.00 73 1006.2
20260505114132 18 327 6.4 6.4 0.00 0.08 0.00 71 1006.3
20260505113113 18 156 3.2 3.2 0.00 0.08 0.00 67 1006.2
20260505112105 18 211 3.2 4.8 0.00 0.08 0.00 68 1006.2
20260505111057 18 135 0.0 1.6 0.00 0.08 0.00 66 1006.1
20260505102002 18 145 3.2 4.8 0.00 0.08 0.00 71 1006.6
20260505100953 18 166 4.8 6.4 0.00 0.08 0.00 69 1006.8
20260505095946 19 139 4.8 4.8 0.00 0.08 0.00 72 1007.0
20260505094932 18 137 6.4 6.4 0.00 0.08 0.00 73 1006.8
20260505093930 18 206 1.6 1.6 0.00 0.08 0.00 73 1007.0
20260505092921 17 143 3.2 4.8 0.00 0.08 0.00 77 1007.1
20260505091857 17 164 6.4 6.4 0.00 0.08 0.00 78 1007.0
20260505090833 17 181 3.2 4.8 0.00 0.08 0.00 81 1007.2
20260505085825 17 154 1.6 3.2 0.00 0.08 0.00 82 1007.2
20260505084818 17 137 4.8 4.8 0.00 0.08 0.00 80 1007.4
20260505083809 16 149 3.2 3.2 0.00 0.08 0.00 85 1007.4
20260505082802 16 36 0.0 0.0 0.00 0.08 0.00 85 1007.3
20260505081753 15 136 0.0 1.6 0.00 0.08 0.00 88 1007.4
20260505080746 14 151 1.6 1.6 0.00 0.08 0.00 89 1007.5
20260505075732 14 151 3.2 3.2 0.00 0.08 0.00 90 1007.7
20260505074730 14 170 4.8 4.8 0.00 0.08 0.00 90 1007.5
20260505073721 13 124 4.8 4.8 0.00 0.08 0.00 91 1007.6
20260505072657 13 122 1.6 1.6 0.00 0.08 0.00 93 1007.7
20260505071633 13 161 0.0 0.0 0.00 0.08 0.00 95 1007.6
20260505070625 13 140 3.2 3.2 0.00 0.08 0.00 95 1007.4
20260505065618 12 164 1.6 3.2 0.00 0.08 0.00 96 1007.5
20260505064609 12 149 4.8 4.8 0.00 0.08 0.00 97 1007.6
20260505063602 12 158 4.8 4.8 0.00 0.08 0.00 98 1007.6
20260505062558 11 160 1.6 3.2 0.00 0.08 0.00 99 1007.5
20260505061546 11 177 1.6 3.2 0.00 0.08 0.00 99 1007.7
20260505060532 11 146 1.6 1.6 0.00 0.08 0.00 99 1007.7
20260505055530 11 157 1.6 3.2 0.00 0.08 0.00 99 1007.9